Hourly Weather Alimena

Today, 8 March, Monday

Time Temperature Precipitation Wind Pressure Humidity
00:00 +5°C° 0 mm 2 mps 698 mmHg 94%
01:00 +5°C° 0 mm 2 mps 698 mmHg 95%
02:00 +5°C° 0 mm 2 mps 698 mmHg 94%
03:00 +5°C° 0 mm 2 mps 697 mmHg 92%
04:00 +5°C° 0 mm 2 mps 697 mmHg 91%
05:00 +5°C° 0 mm 2 mps 696 mmHg 90%
06:00 +5°C° 0 mm 2 mps 696 mmHg 89%
07:00 +5°C° 0 mm 2 mps 696 mmHg 88%
08:00 +6°C° 0 mm 2 mps 696 mmHg 82%
09:00 +8°C° 0 mm 2 mps 697 mmHg 76%
10:00 +10°C° 0 mm 3 mps 697 mmHg 70%
11:00 +10°C° 0 mm 3 mps 697 mmHg 70%
12:00 +11°C° 0 mm 3 mps 697 mmHg 69%
13:00 +11°C° 0 mm 3 mps 696 mmHg 69%
14:00 +12°C° 0 mm 2 mps 696 mmHg 70%
15:00 +12°C° 0 mm 2 mps 696 mmHg 71%
16:00 +12°C° 0 mm 2 mps 696 mmHg 72%
17:00 +10°C° 0 mm 1 mps 696 mmHg 78%
18:00 +9°C° 0 mm 1 mps 695 mmHg 84%
19:00 +7°C° 0 mm 1 mps 695 mmHg 89%
20:00 +7°C° 0 mm 1 mps 695 mmHg 91%
21:00 +6°C° 0 mm 1 mps 696 mmHg 92%
22:00 +6°C° 0 mm 1 mps 696 mmHg 93%
23:00 +5°C° 0 mm 1 mps 696 mmHg 93%

Tomorrow, 9 March, Tuesday

Time Temperature Precipitation Wind Pressure Humidity
00:00 +5°C° 0 mm 1 mps 696 mmHg 93%
01:00 +5°C° 0 mm 1 mps 695 mmHg 93%
02:00 +5°C° 0 mm 1 mps 695 mmHg 91%
03:00 +5°C° 0 mm 1 mps 695 mmHg 89%
04:00 +5°C° 0 mm 1 mps 695 mmHg 88%
05:00 +5°C° 0 mm 1 mps 695 mmHg 87%
06:00 +5°C° 0 mm 1 mps 695 mmHg 86%
07:00 +5°C° 0 mm 1 mps 695 mmHg 85%
08:00 +8°C° 0 mm 1 mps 696 mmHg 79%
09:00 +10°C° 0 mm 1 mps 696 mmHg 74%
10:00 +12°C° 0 mm 2 mps 697 mmHg 69%
11:00 +12°C° 0 mm 2 mps 697 mmHg 67%
12:00 +13°C° 0 mm 2 mps 697 mmHg 66%
13:00 +13°C° 0 mm 3 mps 697 mmHg 64%
14:00 +12°C° 0 mm 3 mps 697 mmHg 67%
15:00 +12°C° 0 mm 3 mps 696 mmHg 69%
16:00 +11°C° 0 mm 3 mps 696 mmHg 72%
17:00 +10°C° 0 mm 2 mps 696 mmHg 78%
18:00 +8°C° 0 mm 2 mps 696 mmHg 85%
19:00 +7°C° 0 mm 1 mps 695 mmHg 92%
20:00 +7°C° 0 mm 1 mps 696 mmHg 93%
21:00 +7°C° 0 mm 1 mps 696 mmHg 95%
22:00 +5°C° 0 mm 2 mps 696 mmHg 96%
23:00 +6°C° 0 mm 2 mps 696 mmHg 96%

Day after tomorrow, 10 March, Wednesday

Time Temperature Precipitation Wind Pressure Humidity
00:00 +6°C° 0 mm 2 mps 696 mmHg 96%
01:00 +6°C° 0 mm 2 mps 695 mmHg 96%
02:00 +7°C° 0 mm 2 mps 695 mmHg 96%
03:00 +7°C° 0 mm 2 mps 695 mmHg 97%
04:00 +7°C° 0 mm 2 mps 695 mmHg 97%
05:00 +8°C° 0 mm 1 mps 695 mmHg 96%
06:00 +8°C° 0 mm 1 mps 695 mmHg 96%
07:00 +8°C° 0 mm 1 mps 695 mmHg 96%
08:00 +8°C° 0 mm 2 mps 696 mmHg 88%
09:00 +10°C° 0 mm 2 mps 696 mmHg 80%
10:00 +12°C° 0 mm 2 mps 697 mmHg 73%
11:00 +11°C° 0.1 mm 3 mps 697 mmHg 73%
12:00 +12°C° 0.1 mm 3 mps 697 mmHg 72%
13:00 +12°C° 0.1 mm 3 mps 697 mmHg 72%
14:00 +12°C° 0.2 mm 4 mps 697 mmHg 73%
15:00 +11°C° 0.2 mm 4 mps 697 mmHg 73%
16:00 +10°C° 0.2 mm 5 mps 697 mmHg 73%
17:00 +8°C° 0.1 mm 4 mps 697 mmHg 79%
18:00 +7°C° 0.1 mm 3 mps 697 mmHg 84%
19:00 +4°C° 0.1 mm 3 mps 697 mmHg 90%
20:00 +5°C° 0 mm 2 mps 697 mmHg 91%
21:00 +4°C° 0 mm 2 mps 698 mmHg 92%
22:00 +4°C° 0 mm 2 mps 698 mmHg 94%
23:00 +4°C° 0 mm 2 mps 698 mmHg 94%

11 March, Thursday

Time Temperature Precipitation Wind Pressure Humidity
00:00 +3°C° 0 mm 2 mps 698 mmHg 94%
01:00 +3°C° 0 mm 2 mps 698 mmHg 94%
02:00 +3°C° 0 mm 2 mps 698 mmHg 94%
03:00 +3°C° 0 mm 2 mps 698 mmHg 93%
04:00 +2°C° 0 mm 2 mps 698 mmHg 93%
05:00 +2°C° 0 mm 2 mps 698 mmHg 92%
06:00 +4°C° 0 mm 1 mps 699 mmHg 92%
07:00 +4°C° 0 mm 1 mps 699 mmHg 91%
08:00 +5°C° 0 mm 2 mps 700 mmHg 83%
09:00 +7°C° 0 mm 2 mps 701 mmHg 74%
10:00 +9°C° 0 mm 2 mps 702 mmHg 65%
11:00 +10°C° 0 mm 2 mps 703 mmHg 63%
12:00 +11°C° 0 mm 3 mps 703 mmHg 61%
13:00 +12°C° 0 mm 3 mps 703 mmHg 59%
14:00 +11°C° 0 mm 3 mps 703 mmHg 62%
15:00 +11°C° 0 mm 3 mps 703 mmHg 65%
16:00 +10°C° 0 mm 3 mps 703 mmHg 68%
17:00 +8°C° 0 mm 3 mps 703 mmHg 75%
18:00 +6°C° 0 mm 2 mps 703 mmHg 83%
19:00 +4°C° 0 mm 2 mps 702 mmHg 90%
20:00 +4°C° 0 mm 1 mps 703 mmHg 87%
21:00 +4°C° 0 mm 1 mps 703 mmHg 84%
22:00 +3°C° 0 mm 1 mps 703 mmHg 80%
23:00 +3°C° 0 mm 1 mps 703 mmHg 73%

12 March, Friday

Time Temperature Precipitation Wind Pressure Humidity
00:00 +3°C° 0 mm 1 mps 703 mmHg 66%
01:00 +2°C° 0 mm 1 mps 703 mmHg 59%
02:00 +2°C° 0 mm 1 mps 703 mmHg 57%
03:00 +2°C° 0 mm 1 mps 702 mmHg 55%
04:00 +2°C° 0 mm 1 mps 702 mmHg 53%
05:00 +3°C° 0 mm 1 mps 702 mmHg 55%
06:00 +3°C° 0 mm 1 mps 702 mmHg 56%
07:00 +3°C° 0 mm 1 mps 702 mmHg 58%
08:00 +6°C° 0 mm 1 mps 703 mmHg 56%
09:00 +9°C° 0 mm 1 mps 703 mmHg 54%
10:00 +11°C° 0 mm 1 mps 704 mmHg 53%
11:00 +12°C° 0 mm 2 mps 704 mmHg 52%
12:00 +13°C° 0 mm 2 mps 704 mmHg 51%
13:00 +14°C° 0 mm 2 mps 704 mmHg 50%
14:00 +14°C° 0 mm 2 mps 703 mmHg 55%
15:00 +12°C° 0 mm 3 mps 703 mmHg 61%
16:00 +12°C° 0 mm 3 mps 702 mmHg 66%
17:00 +10°C° 0 mm 2 mps 701 mmHg 73%
18:00 +8°C° 0 mm 1 mps 701 mmHg 80%
19:00 +6°C° 0 mm 1 mps 700 mmHg 88%
20:00 +6°C° 0 mm 1 mps 700 mmHg 87%
21:00 +5°C° 0 mm 1 mps 700 mmHg 87%
22:00 +5°C° 0 mm 1 mps 700 mmHg 86%
23:00 +5°C° 0 mm 1 mps 700 mmHg 89%

13 March, Saturday

Time Temperature Precipitation Wind Pressure Humidity
00:00 +5°C° 0 mm 1 mps 700 mmHg 91%
01:00 +5°C° 0 mm 1 mps 700 mmHg 93%
02:00 +5°C° 0 mm 1 mps 699 mmHg 92%
03:00 +5°C° 0 mm 1 mps 699 mmHg 91%
04:00 +4°C° 0 mm 0 mps 699 mmHg 90%
05:00 +6°C° 0 mm 1 mps 699 mmHg 87%
06:00 +6°C° 0 mm 1 mps 699 mmHg 85%
07:00 +6°C° 0 mm 1 mps 699 mmHg 83%
08:00 +8°C° 0 mm 1 mps 699 mmHg 75%
09:00 +9°C° 0 mm 1 mps 700 mmHg 67%
10:00 +11°C° 0 mm 1 mps 700 mmHg 59%
11:00 +11°C° 0 mm 1 mps 700 mmHg 56%
12:00 +12°C° 0 mm 1 mps 700 mmHg 52%
13:00 +12°C° 0 mm 1 mps 700 mmHg 48%
14:00 +12°C° 0 mm 1 mps 700 mmHg 51%
15:00 +12°C° 0 mm 2 mps 699 mmHg 53%
16:00 +12°C° 0 mm 2 mps 699 mmHg 56%
17:00 +9°C° 0 mm 2 mps 699 mmHg 60%
18:00 +9°C° 0 mm 1 mps 698 mmHg 65%
19:00 +7°C° 0 mm 1 mps 698 mmHg 69%
20:00 +6°C° 0 mm 1 mps 698 mmHg 67%
21:00 +6°C° 0 mm 1 mps 699 mmHg 64%
22:00 +4°C° 0 mm 2 mps 699 mmHg 62%
23:00 +4°C° 0 mm 2 mps 699 mmHg 68%
Show more